User: anonymous   Login
Location: Nitra
(0.0000°N, 18.0833°E)
Time: 09:41:08
(UTC+02:00)
Language:

KAITUO 1B - Orbit

View from above orbital plane
View from above orbital plane
View from above satellite
View from above satellite

Ground track
Ground track

The orbit data is extracted from the following two-line orbital elements,

1 40912U 15049P   23160.88112271  .00036318  00000-0  81137-3 0  9991
2 40912  97.4170 178.5207 0011300 109.6968 250.5500 15.43369485428481
Epoch (UTC): 09 June 2023 21:08:49
Eccentricity: 0.0011300
inclination: 97.4170°
perigee height: 428 km
apogee height: 444 km
right ascension of ascending node: 178.5207°
argument of perigee: 109.6968°
revolutions per day: 15.43369485
mean anomaly at epoch: 250.5500°
orbit number at epoch: 42848

The dashed part of the orbit path shows where the satellite is in the earth's shadow,  

DLR